DL2DHM-13 Weather Reports


time (UTC)temp
F
wind
direction
speed
knots
gust
knots
rain 1hr
in
rain 24hr
in
rain mn
in
humidity
%
barometer
mb
20260507101532 48 348 0.9 3.5 0.00 0.22 0.04 92 1013.7
20260507101030 48 111 0.9 2.6 0.00 0.22 0.04 92 1013.6
20260507100527 48 82 0.0 3.5 0.00 0.22 0.04 92 1013.6
20260507100039 48 38 0.9 4.3 0.00 0.22 0.04 93 1013.6
20260507095525 48 15 2.6 4.3 0.00 0.24 0.04 93 1013.5
20260507095023 47 26 2.6 4.3 0.00 0.24 0.04 93 1013.4
20260507094522 47 34 1.7 3.5 0.00 0.24 0.04 93 1013.4
20260507094022 47 11 1.7 4.3 0.00 0.24 0.04 93 1013.4
20260507093520 47 23 2.6 5.2 0.00 0.24 0.04 93 1013.4
20260507093022 47 25 2.6 5.2 0.00 0.24 0.04 93 1013.2
20260507092520 47 41 1.7 3.5 0.00 0.24 0.04 93 1013.2
20260507092018 47 98 1.7 3.5 0.00 0.24 0.04 93 1013.2
20260507091520 47 24 0.9 4.3 0.00 0.24 0.04 93 1013.1
20260507091017 47 61 0.9 5.2 0.00 0.24 0.04 93 1013.0
20260507090516 47 54 1.7 5.2 0.00 0.24 0.04 93 1012.9
20260507090015 48 60 1.7 4.3 0.00 0.24 0.04 93 1012.9
20260507085514 47 31 0.9 4.3 0.00 0.24 0.04 93 1012.8
20260507085013 47 71 1.7 3.5 0.00 0.24 0.04 93 1012.8
20260507084528 47 46 1.7 4.3 0.00 0.24 0.04 93 1012.8
20260507084015 47 128 0.9 5.2 0.00 0.24 0.04 94 1012.7
20260507083511 47 48 1.7 5.2 0.00 0.24 0.04 94 1012.7
20260507083018 47 57 1.7 3.5 0.00 0.24 0.04 94 1012.6
20260507082509 47 25 0.9 3.5 0.00 0.24 0.04 94 1012.6
20260507082008 47 61 1.7 3.5 0.00 0.24 0.04 94 1012.5
20260507081507 47 74 0.9 4.3 0.00 0.24 0.04 94 1012.4
20260507081010 47 22 1.7 4.3 0.00 0.24 0.04 94 1012.4
20260507080506 47 42 1.7 3.5 0.00 0.24 0.04 94 1012.4
20260507080006 47 360 1.7 4.3 0.00 0.24 0.04 94 1012.3
20260507075505 47 50 1.7 4.3 0.00 0.24 0.04 94 1012.2
20260507075004 47 44 0.9 4.3 0.00 0.24 0.04 94 1012.2
20260507074504 47 43 2.6 4.3 0.00 0.24 0.04 94 1012.1
20260507074002 47 11 1.7 3.5 0.00 0.24 0.04 94 1012.0
20260507073502 47 65 0.9 2.6 0.00 0.24 0.04 94 1012.0
20260507073001 47 65 0.0 2.6 0.00 0.24 0.04 94 1011.9
20260507072501 47 65 0.9 2.6 0.00 0.24 0.04 94 1011.9
20260507072103 47 65 0.9 2.6 0.00 0.24 0.04 94 1011.9
20260507071558 47 53 0.0 0.9 0.00 0.24 0.04 94 1011.9
20260507071058 47 53 0.0 1.7 0.00 0.24 0.04 94 1011.8
20260507070558 47 53 0.0 1.7 0.00 0.24 0.04 94 1011.7
20260507070107 47 53 0.0 1.7 0.00 0.24 0.04 94 1011.7
20260507065556 47 53 0.0 2.6 0.00 0.26 0.04 94 1011.7
20260507065058 47 53 0.9 2.6 0.00 0.26 0.04 94 1011.6
20260507064559 47 53 0.9 4.3 0.00 0.26 0.04 94 1011.5
20260507064056 47 52 1.7 4.3 0.00 0.26 0.04 94 1011.5
20260507063554 47 42 0.0 1.7 0.00 0.26 0.04 94 1011.5
20260507063055 47 42 0.9 2.6 0.00 0.26 0.04 94 1011.4
20260507062553 47 43 0.9 2.6 0.00 0.26 0.04 94 1011.4
20260507062052 47 43 1.7 2.6 0.00 0.26 0.04 94 1011.3
20260507061551 47 350 0.0 2.6 0.00 0.26 0.04 94 1011.3
20260507061049 46 9 0.9 2.6 0.00 0.26 0.04 94 1011.2
20260507060551 47 9 0.9 2.6 0.00 0.26 0.04 94 1011.1
20260507060048 47 19 0.9 2.6 0.00 0.26 0.04 94 1011.0
20260507055547 47 20 0.9 2.6 0.00 0.31 0.04 94 1011.0
20260507055046 46 24 0.0 3.5 0.00 0.31 0.04 94 1010.9
20260507054546 46 22 0.9 3.5 0.01 0.31 0.04 94 1010.9
20260507054049 46 26 0.0 3.5 0.01 0.31 0.04 94 1010.8
20260507053543 46 27 0.9 2.6 0.01 0.31 0.04 94 1010.8
20260507053044 46 11 0.0 2.6 0.01 0.31 0.04 94 1010.7
20260507052542 46 11 0.0 3.5 0.01 0.31 0.04 94 1010.7
20260507052043 46 17 0.9 2.6 0.01 0.31 0.04 94 1010.6
20260507051541 46 203 0.0 3.5 0.01 0.31 0.04 94 1010.6
20260507051040 46 5 1.7 4.3 0.01 0.31 0.04 94 1010.5
20260507050540 46 22 1.7 4.3 0.01 0.31 0.04 94 1010.4
20260507050100 46 309 1.7 4.3 0.01 0.31 0.04 94 1010.5
20260507045539 46 25 1.7 4.3 0.01 0.39 0.04 94 1010.4
20260507045038 46 11 2.6 7.8 0.00 0.38 0.03 94 1010.3
20260507044549 46 16 1.7 7.8 0.00 0.38 0.03 94 1010.4
20260507044039 46 355 0.9 3.5 0.00 0.38 0.03 94 1010.3
20260507043534 46 355 0.9 3.5 0.00 0.38 0.03 94 1010.3
20260507043134 46 355 0.9 3.5 0.00 0.38 0.03 94 1010.2
20260507042536 46 355 1.7 3.5 0.00 0.38 0.03 94 1010.1
20260507042033 46 355 0.9 5.2 0.00 0.38 0.03 94 1010.1
20260507041533 46 327 1.7 5.2 0.00 0.38 0.03 94 1010.0
20260507041033 46 318 2.6 5.2 0.00 0.38 0.03 94 1010.0
20260507040531 46 350 1.7 4.3 0.00 0.38 0.03 94 1009.9
20260507040032 46 327 1.7 4.3 0.00 0.38 0.03 94 1009.9
20260507035530 46 345 1.7 5.2 0.00 0.49 0.03 94 1009.9
20260507035033 46 16 0.9 3.5 0.00 0.49 0.03 94 1009.8
20260507034535 46 15 1.7 4.3 0.00 0.49 0.03 94 1009.8
20260507034029 46 338 0.9 4.3 0.00 0.49 0.03 94 1009.8
20260507033530 46 13 1.7 4.3 0.00 0.49 0.03 94 1009.9
20260507033036 47 327 0.9 3.5 0.00 0.49 0.03 94 1009.8
20260507032527 47 261 0.0 1.7 0.00 0.49 0.03 94 1009.8
20260507032027 47 261 0.0 2.6 0.00 0.49 0.03 94 1009.7
20260507031532 47 288 0.0 2.6 0.00 0.49 0.03 94 1009.6
20260507031028 46 19 0.0 1.7 0.00 0.49 0.03 94 1009.6
20260507030526 46 360 0.0 2.6 0.00 0.49 0.03 94 1009.6
20260507030033 46 360 0.9 4.3 0.00 0.49 0.03 94 1009.5
20260507025524 47 17 0.9 4.3 0.00 0.56 0.03 94 1009.4
20260507025024 47 325 0.0 2.6 0.00 0.56 0.03 94 1009.4
20260507024528 47 21 0.0 1.7 0.00 0.56 0.03 94 1009.5
20260507024023 47 21 0.0 1.7 0.00 0.56 0.03 94 1009.4
20260507023523 47 21 0.0 2.6 0.00 0.56 0.03 94 1009.4
20260507023022 47 21 0.0 3.5 0.00 0.56 0.03 94 1009.4
20260507022522 47 26 1.7 3.5 0.00 0.56 0.03 94 1009.3
20260507022023 47 26 1.7 3.5 0.00 0.56 0.03 94 1009.3
20260507021538 47 313 1.7 3.5 0.00 0.56 0.03 94 1009.3
20260507021021 47 15 0.9 2.6 0.00 0.56 0.03 94 1009.3
20260507020521 47 13 0.0 3.5 0.00 0.56 0.03 94 1009.2
20260507020024 47 13 1.7 4.3 0.00 0.56 0.03 94 1009.2
20260507015519 47 22 0.9 4.3 0.00 0.66 0.03 94 1009.2
20260507015019 47 26 0.9 2.6 0.00 0.66 0.03 94 1009.1
20260507014522 47 31 0.0 3.5 0.00 0.66 0.03 94 1009.1
20260507014022 47 15 0.9 5.2 0.00 0.66 0.03 94 1009.1
20260507013518 47 34 0.9 5.2 0.00 0.66 0.03 94 1009.1
20260507013018 47 24 0.9 3.5 0.00 0.66 0.03 94 1009.0
20260507012519 47 17 0.9 3.5 0.00 0.66 0.03 94 1009.1
20260507012017 47 16 0.9 3.5 0.00 0.66 0.03 94 1009.0
20260507011617 47 16 1.7 3.5 0.00 0.66 0.03 94 1008.9
20260507011015 47 5 1.7 5.2 0.00 0.66 0.03 94 1008.9
20260507010518 47 310 0.9 3.5 0.00 0.66 0.03 94 1008.9
20260507010028 47 11 1.7 3.5 0.00 0.66 0.03 94 1008.9
20260507005515 47 11 0.9 3.5 0.00 0.73 0.03 94 1009.0
20260507005021 47 9 0.0 3.5 0.00 0.73 0.03 94 1008.9
20260507004519 47 327 1.7 7.8 0.00 0.73 0.03 94 1008.9
20260507004013 47 19 2.6 7.8 0.00 0.73 0.03 94 1008.8
20260507003512 47 5 0.9 2.6 0.00 0.73 0.03 94 1008.8
20260507003012 47 318 0.0 2.6 0.00 0.73 0.03 94 1008.8
20260507002512 47 5 0.0 2.6 0.00 0.73 0.03 94 1008.7
20260507002011 47 317 0.0 2.6 0.00 0.73 0.03 94 1008.7
20260507001511 47 317 0.0 2.6 0.00 0.73 0.03 94 1008.6
20260507001009 47 290 0.9 2.6 0.01 0.73 0.03 94 1008.6
20260507000517 47 317 0.9 3.5 0.01 0.73 0.03 94 1008.5
20260507000110 47 307 0.0 3.5 0.01 0.73 0.03 94 1008.6
20260506235509 47 311 0.9 2.6 0.01 0.82 0.03 94 1008.6
20260506235011 47 291 0.0 2.6 0.01 0.82 0.03 94 1008.6
20260506234508 47 336 0.0 3.5 0.01 0.82 0.03 94 1008.6
20260506234008 47 300 0.9 3.5 0.02 0.82 0.03 94 1008.6
20260506233508 47 251 0.9 3.5 0.02 0.82 0.03 94 1008.6
20260506233006 47 319 0.0 2.6 0.02 0.82 0.03 94 1008.6
20260506232505 47 319 0.9 2.6 0.02 0.82 0.03 94 1008.6
20260506232007 47 318 0.0 1.7 0.03 0.82 0.03 94 1008.5
20260506231505 47 315 0.0 2.6 0.03 0.82 0.03 94 1008.5
20260506231004 47 315 0.9 2.6 0.02 0.81 0.02 94 1008.5
20260506230514 47 315 0.0 1.7 0.02 0.81 0.02 94 1008.5
20260506230002 47 315 0.0 2.6 0.02 0.81 0.02 94 1008.5
20260506225605 47 315 0.9 2.6 0.03 0.87 0.02 94 1008.4
20260506225059 47 313 0.0 1.7 0.03 0.87 0.02 94 1008.4
20260506224557 47 313 0.9 1.7 0.03 0.87 0.02 94 1008.5
20260506224055 47 312 0.9 1.7 0.02 0.87 0.02 94 1008.5
20260506223557 47 312 0.0 0.9 0.03 0.87 0.02 94 1008.5
20260506223058 47 312 0.0 1.7 0.03 0.87 0.02 94 1008.5
20260506222551 47 312 0.0 1.7 0.02 0.86 0.01 94 1008.4
20260506222049 47 315 0.0 2.6 0.02 0.85 0.00 94 1008.4
20260506221547 47 315 0.0 2.6 0.02 0.85 0.00 94 1008.4
20260506221047 47 315 0.0 2.6 0.02 0.85 0.00 94 1008.4
20260506220545 47 266 0.0 3.5 0.02 0.85 0.00 94 1008.3
20260506220043 47 341 0.0 1.7 0.02 0.85 0.00 94 1008.3
20260506215543 47 341 0.0 3.5 0.02 0.85 0.84 94 1008.2
20260506215044 47 341 0.9 3.5 0.02 0.85 0.84 94 1008.2
20260506214544 47 265 0.0 1.7 0.02 0.85 0.84 94 1008.1
20260506214042 47 323 0.0 1.7 0.02 0.85 0.84 94 1008.1
20260506213543 47 323 0.0 1.7 0.01 0.84 0.83 94 1008.1
20260506213040 47 323 0.0 1.7 0.01 0.84 0.83 94 1008.0
20260506212541 47 323 0.0 1.7 0.01 0.84 0.83 94 1008.0
20260506212040 47 323 0.0 1.7 0.01 0.84 0.83 94 1008.0
20260506211539 47 324 0.0 1.7 0.01 0.84 0.83 94 1007.9
20260506211039 47 323 0.0 2.6 0.01 0.84 0.83 94 1007.9
20260506210539 47 22 0.0 2.6 0.00 0.83 0.83 94 1007.9
20260506210040 47 22 0.0 2.6 0.00 0.83 0.83 94 1007.8
20260506205538 47 25 0.0 2.6 0.00 0.83 0.83 94 1007.7
20260506205038 47 22 0.0 1.7 0.00 0.83 0.83 94 1007.8
20260506204548 47 22 0.0 0.9 0.00 0.83 0.83 94 1007.8
20260506204038 47 22 0.0 2.6 0.00 0.83 0.83 94 1007.8
20260506203533 47 22 0.0 2.6 0.00 0.83 0.83 94 1007.7
20260506203033 47 22 0.0 2.6 0.00 0.83 0.83 94 1007.7
20260506202533 47 22 0.9 2.6 0.00 0.83 0.83 94 1007.8
20260506202033 47 22 0.0 4.3 0.00 0.83 0.83 94 1007.7
20260506201535 47 22 1.7 4.3 0.00 0.83 0.83 94 1007.7
20260506201031 47 271 0.0 2.6 0.00 0.83 0.83 94 1007.6
20260506200531 47 270 0.0 4.3 0.00 0.83 0.83 94 1007.6
20260506200033 47 333 0.0 4.3 0.00 0.83 0.83 94 1007.6
20260506195530 47 31 0.0 2.6 0.00 0.83 0.83 94 1007.5
20260506195033 47 355 0.0 2.6 0.00 0.83 0.83 94 1007.4
20260506194530 47 328 0.0 1.7 0.00 0.83 0.83 94 1007.5
20260506194029 47 296 0.0 2.6 0.01 0.83 0.83 94 1007.5
20260506193528 47 296 0.0 2.6 0.01 0.83 0.83 94 1007.5
20260506193028 47 311 0.0 2.6 0.01 0.83 0.83 94 1007.4
20260506192528 47 311 0.0 2.6 0.01 0.83 0.83 94 1007.4
20260506192027 47 310 0.0 1.7 0.01 0.83 0.83 94 1007.3
20260506191527 47 310 0.0 1.7 0.01 0.83 0.83 94 1007.2
20260506191025 47 310 0.0 1.7 0.01 0.83 0.83 94 1007.1
20260506190626 47 310 0.0 1.7 0.01 0.83 0.83 94 1007.1
20260506190023 47 309 0.0 1.7 0.01 0.83 0.83 94 1007.1
20260506185523 47 309 0.0 1.7 0.01 0.83 0.83 94 1007.0
20260506185023 47 308 0.0 1.7 0.01 0.83 0.83 93 1006.9
20260506184522 47 309 0.0 2.6 0.01 0.83 0.83 93 1006.8
20260506184022 47 308 0.9 3.5 0.00 0.83 0.82 93 1006.7
20260506183521 47 346 0.9 3.5 0.01 0.83 0.82 93 1006.7
20260506183021 47 38 0.0 2.6 0.01 0.83 0.82 93 1006.7
20260506182519 47 9 0.9 2.6 0.01 0.83 0.82 93 1006.6
20260506182019 47 31 0.0 2.6 0.02 0.83 0.82 94 1006.6
20260506181525 47 31 0.0 2.6 0.02 0.83 0.82 94 1006.6
20260506181021 47 50 0.0 2.6 0.02 0.83 0.82 94 1006.5
20260506180521 47 50 0.9 3.5 0.02 0.83 0.82 93 1006.5
20260506180017 47 18 0.9 4.3 0.02 0.83 0.82 93 1006.5
20260506175516 47 19 1.7 4.3 0.02 0.83 0.82 93 1006.4
20260506175015 48 347 1.7 2.6 0.03 0.83 0.82 93 1006.2
20260506174515 48 346 0.9 2.6 0.03 0.83 0.82 93 1006.2
20260506174020 48 344 0.9 2.6 0.04 0.83 0.82 93 1006.2
20260506173515 48 321 0.9 2.6 0.04 0.82 0.81 93 1006.1
20260506173015 48 35 0.9 2.6 0.05 0.82 0.81 93 1006.1
20260506172514 48 35 0.9 3.5 0.06 0.82 0.81 93 1006.2
20260506172014 48 51 0.9 3.5 0.05 0.81 0.80 93 1006.2
20260506171522 48 37 0.9 2.6 0.06 0.81 0.80 93 1006.1
20260506171114 48 41 0.9 3.5 0.06 0.81 0.80 93 1006.2
20260506170512 48 41 0.9 3.5 0.06 0.81 0.80 93 1006.1
20260506170014 48 16 0.0 0.9 0.06 0.80 0.80 93 1006.1
20260506165512 48 16 0.0 1.7 0.06 0.80 0.80 93 1006.2
20260506165013 48 16 0.0 2.6 0.05 0.80 0.79 93 1006.2
20260506164511 48 16 0.0 3.5 0.04 0.79 0.78 93 1006.1
20260506164013 48 17 1.7 3.5 0.04 0.79 0.78 93 1006.0
20260506163513 48 15 0.9 2.6 0.03 0.78 0.77 93 1006.0
20260506163011 48 13 0.9 2.6 0.03 0.77 0.76 93 1006.0
20260506162512 48 11 0.0 4.3 0.02 0.76 0.76 93 1006.0
20260506162010 48 11 1.7 4.3 0.03 0.76 0.76 94 1006.1
20260506161511 48 324 0.9 2.6 0.03 0.76 0.75 94 1006.1
20260506161010 48 324 0.9 2.6 0.03 0.76 0.75 94 1006.0
20260506160511 48 26 0.9 2.6 0.03 0.75 0.74 94 1006.0
20260506160010 48 27 0.9 3.5 0.04 0.75 0.74 94 1006.0
20260506155508 48 21 0.9 3.5 0.04 0.75 0.74 93 1006.0
20260506155010 48 350 0.9 2.6 0.04 0.75 0.74 93 1006.0
20260506154508 48 19 0.9 2.6 0.05 0.75 0.74 93 1006.0
20260506154007 48 29 0.0 2.6 0.05 0.75 0.74 93 1006.0
20260506153509 48 11 0.9 2.6 0.05 0.75 0.74 93 1006.0
20260506153007 48 11 0.0 2.6 0.04 0.74 0.73 93 1005.9
20260506152508 48 9 0.9 2.6 0.04 0.74 0.73 93 1005.9
20260506152007 48 11 0.9 5.2 0.03 0.73 0.72 93 1005.9
20260506151507 48 5 1.7 5.2 0.02 0.72 0.72 93 1006.0
20260506151010 48 355 1.7 4.3 0.02 0.72 0.72 93 1006.0
20260506150509 48 19 1.7 4.3 0.02 0.72 0.71 93 1006.0
20260506150010 48 355 1.7 4.3 0.01 0.71 0.70 93 1005.9
20260506145505 48 333 0.9 2.6 0.01 0.71 0.70 93 1005.9
20260506145005 49 330 0.9 6.1 0.01 0.71 0.70 93 1005.9
20260506144505 49 20 0.0 2.6 0.00 0.70 0.69 93 1005.9
20260506144005 49 351 0.0 2.6 0.00 0.70 0.69 93 1005.8
20260506143505 49 26 0.9 3.5 0.00 0.70 0.69 93 1005.8
20260506143012 48 26 1.7 3.5 0.00 0.70 0.69 93 1005.7
20260506142503 49 5 1.7 3.5 0.00 0.70 0.69 93 1005.7
20260506142002 48 22 1.7 3.5 0.00 0.70 0.69 93 1005.6
20260506141502 48 30 0.9 3.5 0.00 0.70 0.69 93 1005.7
20260506141002 48 34 1.7 3.5 0.00 0.70 0.69 93 1005.7
20260506140502 48 24 0.9 3.5 0.00 0.70 0.69 93 1005.7
20260506140112 48 15 0.9 4.3 0.00 0.70 0.69 93 1005.8
20260506135600 48 13 1.7 5.2 0.00 0.70 0.69 93 1005.7
20260506135100 48 12 2.6 5.2 0.00 0.70 0.69 93 1005.7
20260506134600 48 355 1.7 3.5 0.00 0.70 0.69 93 1005.7
20260506134500 49 5 1.7 3.5 0.00 0.70 0.69 93 1005.6
20260506134100 48 57 0.9 5.2 0.00 0.70 0.69 93 1005.7
20260506133600 48 27 1.7 5.2 0.00 0.70 0.69 93 1005.7
20260506133101 48 65 1.7 4.3 0.00 0.70 0.69 93 1005.7
20260506132605 48 82 1.7 4.3 0.00 0.70 0.69 93 1005.7
20260506132100 48 32 1.7 4.3 0.00 0.70 0.69 93 1005.6
20260506131601 48 28 1.7 5.2 0.00 0.70 0.69 93 1005.6
20260506131100 48 19 3.5 5.2 0.00 0.70 0.69 93 1005.5
20260506130602 48 13 2.6 5.2 0.00 0.70 0.69 93 1005.5
20260506130133 48 30 1.7 4.3 0.00 0.70 0.69 93 1005.5
20260506125602 48 72 1.7 3.5 0.00 0.70 0.69 94 1005.6
20260506125058 48 32 0.9 3.5 0.00 0.70 0.69 94 1005.6
20260506124558 48 9 0.9 3.5 0.00 0.70 0.69 94 1005.5
20260506124058 48 360 0.9 5.2 0.00 0.70 0.69 94 1005.5
20260506123559 48 19 1.7 4.3 0.01 0.70 0.69 94 1005.4
20260506123058 48 12 1.7 4.3 0.01 0.70 0.69 94 1005.3
20260506122558 48 28 1.7 4.3 0.01 0.70 0.69 94 1005.3
20260506122058 48 298 1.7 4.3 0.01 0.70 0.69 94 1005.3
20260506121557 48 26 2.6 4.3 0.01 0.70 0.69 94 1005.2
20260506121057 48 19 1.7 3.5 0.01 0.70 0.69 94 1005.2
20260506120556 48 26 0.9 3.5 0.02 0.70 0.69 94 1005.2
20260506120059 48 11 1.7 4.3 0.02 0.70 0.69 94 1005.0
20260506115556 48 11 0.9 4.3 0.02 0.70 0.69 94 1005.1
20260506115054 48 5 0.9 4.3 0.02 0.70 0.69 94 1005.0
20260506114556 48 5 0.9 4.3 0.02 0.70 0.69 94 1005.0
20260506114053 47 17 1.7 5.2 0.02 0.70 0.69 94 1004.9
20260506113553 48 13 1.7 5.2 0.02 0.69 0.69 94 1005.0
20260506113103 48 5 1.7 3.5 0.02 0.69 0.69 93 1005.0
20260506112552 48 283 0.9 4.3 0.02 0.69 0.69 93 1005.0
20260506112054 48 17 0.9 2.6 0.02 0.69 0.69 93 1005.1
20260506111553 48 17 0.9 3.5 0.02 0.69 0.69 93 1005.1
20260506111052 48 28 0.9 3.5 0.02 0.69 0.69 94 1005.2
20260506110551 48 35 0.9 4.3 0.01 0.69 0.68 93 1005.1
20260506110059 48 5 0.9 4.3 0.01 0.69 0.68 93 1005.0
20260506105551 48 17 1.7 5.2 0.00 0.68 0.67 93 1005.0
20260506105050 48 5 1.7 5.2 0.01 0.68 0.67 93 1004.9
20260506104605 48 19 2.6 4.3 0.01 0.68 0.67 93 1004.9
20260506104050 48 28 1.7 4.3 0.01 0.68 0.67 93 1004.9
20260506103550 48 27 1.7 6.1 0.01 0.68 0.67 93 1004.9
20260506103051 47 14 3.5 6.1 0.01 0.68 0.67 94 1004.8
20260506102550 47 38 3.5 7.8 0.01 0.68 0.67 94 1004.8
20260506102048 48 28 2.6 5.2 0.02 0.68 0.67 94 1004.8
20260506101556 48 34 2.6 5.2 0.02 0.68 0.67 94 1004.7